AWG136Z LROP-LRIA

Flight info

Callsign AWG136Z
Flight time 0h 35m
Altitude 25000
Route DENAK DCT GUXVA T74 ABOLO
Aircraft A320/M-L/S

Departure

Time 2026-04-30 12:34
Airport Bucharest Henri Coandă International Airport (LROP)

Arrival

Time 2026-04-30 13:09
Airport Iaşi International Airport (LRIA)
Time Latitude Longitude Altitude Speed Heading
2026-04-30 12:05 44.57269 26.08098 323 ft 0 kts 354°
2026-04-30 12:27 44.57259 26.08100 319 ft 4 kts 354°
2026-04-30 12:27 44.57232 26.08103 322 ft 3 kts 354°
2026-04-30 12:28 44.57212 26.08105 320 ft 4 kts 34°
2026-04-30 12:28 44.57203 26.08079 321 ft 4 kts 84°
2026-04-30 12:28 44.57201 26.08063 319 ft 0 kts 84°
2026-04-30 12:30 44.57203 26.08082 321 ft 4 kts 84°
2026-04-30 12:30 44.57207 26.08137 323 ft 8 kts 84°
2026-04-30 12:31 44.57214 26.08226 323 ft 11 kts 84°
2026-04-30 12:31 44.57219 26.08301 323 ft 13 kts 84°
2026-04-30 12:31 44.57229 26.08436 323 ft 14 kts 84°
2026-04-30 12:31 44.57304 26.08495 323 ft 11 kts 354°
2026-04-30 12:32 44.57359 26.08487 323 ft 13 kts 354°
2026-04-30 12:32 44.57447 26.08474 323 ft 12 kts 354°
2026-04-30 12:32 44.57531 26.08461 321 ft 12 kts 354°
2026-04-30 12:32 44.57613 26.08450 323 ft 12 kts 354°
2026-04-30 12:33 44.57666 26.08478 323 ft 8 kts 81°
2026-04-30 12:33 44.57671 26.08559 324 ft 11 kts 84°
2026-04-30 12:33 44.57696 26.08872 322 ft 67 kts 84°
2026-04-30 12:33 44.57767 26.09822 323 ft 126 kts 84°
2026-04-30 12:34 44.57864 26.11207 655 ft 147 kts 79°
2026-04-30 12:34 44.57957 26.12479 1423 ft 146 kts 79°
2026-04-30 12:34 44.58069 26.13910 2179 ft 146 kts 79°
2026-04-30 12:34 44.58178 26.15342 2906 ft 146 kts 80°
2026-04-30 12:35 44.58434 26.16680 3574 ft 146 kts 60°
2026-04-30 12:35 44.59283 26.17652 3890 ft 176 kts 24°
2026-04-30 12:35 44.60535 26.18166 4311 ft 199 kts 20°
2026-04-30 12:35 44.61953 26.18718 4777 ft 223 kts 19°
2026-04-30 12:36 44.63526 26.19338 5281 ft 246 kts 19°
2026-04-30 12:36 44.65209 26.20001 6083 ft 255 kts 18°
2026-04-30 12:36 44.66938 26.20682 6966 ft 262 kts 18°
2026-04-30 12:36 44.68710 26.21393 7815 ft 268 kts 18°
2026-04-30 12:37 44.70523 26.22119 8681 ft 274 kts 17°
2026-04-30 12:37 44.72383 26.22852 9511 ft 281 kts 16°
2026-04-30 12:37 44.74286 26.23602 10327 ft 288 kts 16°
2026-04-30 12:37 44.76267 26.24387 10752 ft 309 kts 16°
2026-04-30 12:38 44.78421 26.25244 11099 ft 330 kts 16°
2026-04-30 12:38 44.80660 26.26137 11759 ft 339 kts 15°
2026-04-30 12:38 44.82949 26.27053 12516 ft 345 kts 15°
2026-04-30 12:38 44.85273 26.27986 13277 ft 350 kts 15°
2026-04-30 12:39 44.87633 26.28935 14035 ft 355 kts 15°
2026-04-30 12:39 44.90025 26.29898 14659 ft 361 kts 14°
2026-04-30 12:39 44.92429 26.30866 15268 ft 366 kts 14°
2026-04-30 12:39 44.94927 26.31873 15930 ft 371 kts 14°
2026-04-30 12:40 44.97420 26.32880 16600 ft 375 kts 14°
2026-04-30 12:40 44.99943 26.33901 17257 ft 379 kts 13°
2026-04-30 12:40 45.02494 26.34931 17914 ft 384 kts 13°
2026-04-30 12:40 45.05082 26.35974 18563 ft 389 kts 13°
2026-04-30 12:41 45.07707 26.37045 19121 ft 395 kts 12°
2026-04-30 12:41 45.10351 26.38146 19677 ft 400 kts 12°
2026-04-30 12:41 45.13006 26.39268 20233 ft 404 kts 12°
2026-04-30 12:41 45.15716 26.40417 20802 ft 409 kts 11°
2026-04-30 12:42 45.18496 26.41595 21350 ft 414 kts 11°
2026-04-30 12:42 45.21268 26.42770 21899 ft 419 kts 11°
2026-04-30 12:42 45.24080 26.43960 22417 ft 423 kts 10°
2026-04-30 12:42 45.26916 26.45161 22920 ft 427 kts
2026-04-30 12:43 45.29778 26.46371 23407 ft 431 kts
2026-04-30 12:43 45.32666 26.47596 23871 ft 435 kts
2026-04-30 12:43 45.35578 26.48830 24298 ft 438 kts
2026-04-30 12:43 45.38510 26.50077 24746 ft 441 kts
2026-04-30 12:44 45.41460 26.51335 25154 ft 444 kts
2026-04-30 12:44 45.44409 26.52592 25275 ft 443 kts
2026-04-30 12:44 45.47343 26.53849 25317 ft 435 kts
2026-04-30 12:44 45.50228 26.55091 25314 ft 432 kts
2026-04-30 12:45 45.53108 26.56328 25316 ft 431 kts
2026-04-30 12:45 45.55974 26.57555 25312 ft 430 kts
2026-04-30 12:45 45.58842 26.58780 25320 ft 430 kts
2026-04-30 12:45 45.61705 26.60002 25319 ft 429 kts
2026-04-30 12:46 45.64564 26.61224 25321 ft 429 kts
2026-04-30 12:46 45.67419 26.62444 25324 ft 428 kts
2026-04-30 12:46 45.70270 26.63665 25322 ft 427 kts
2026-04-30 12:46 45.73103 26.64882 25328 ft 427 kts
2026-04-30 12:47 45.75960 26.66113 25324 ft 427 kts 10°
2026-04-30 12:47 45.78796 26.67340 25319 ft 427 kts 10°
2026-04-30 12:47 45.81635 26.68570 25327 ft 427 kts 10°
2026-04-30 12:47 45.84481 26.69801 25341 ft 426 kts 10°
2026-04-30 12:48 45.87291 26.71015 25344 ft 425 kts 10°
2026-04-30 12:48 45.90128 26.72241 25340 ft 425 kts 10°
2026-04-30 12:48 45.92953 26.73469 25351 ft 425 kts 10°
2026-04-30 12:48 45.95775 26.74698 25329 ft 424 kts 10°
2026-04-30 12:49 45.98603 26.75930 25348 ft 423 kts 10°
2026-04-30 12:49 46.01414 26.77149 25346 ft 423 kts 10°
2026-04-30 12:49 46.04229 26.78371 25337 ft 422 kts 10°
2026-04-30 12:49 46.07046 26.79595 25335 ft 422 kts 11°
2026-04-30 12:50 46.09849 26.80819 25344 ft 421 kts 11°
2026-04-30 12:50 46.12644 26.82040 25341 ft 421 kts 11°
2026-04-30 12:50 46.14897 26.83026 25341 ft 420 kts 11°
2026-04-30 12:50 46.17690 26.84249 25342 ft 420 kts 11°
2026-04-30 12:51 46.20488 26.85476 25332 ft 419 kts 11°
2026-04-30 12:51 46.23274 26.86702 25346 ft 419 kts 11°
2026-04-30 12:51 46.26044 26.87920 25173 ft 412 kts 11°
2026-04-30 12:51 46.28758 26.89116 24935 ft 405 kts 11°
2026-04-30 12:52 46.31447 26.90300 24667 ft 400 kts 11°
2026-04-30 12:52 46.34091 26.91466 24214 ft 396 kts 11°
2026-04-30 12:52 46.36718 26.92620 23708 ft 393 kts 11°
2026-04-30 12:52 46.39308 26.93757 23201 ft 390 kts 11°
2026-04-30 12:53 46.41905 26.94901 22727 ft 386 kts 11°
2026-04-30 12:53 46.44457 26.96032 22244 ft 383 kts 11°
2026-04-30 12:53 46.46997 26.97160 21764 ft 380 kts 11°
2026-04-30 12:53 46.49514 26.98278 21274 ft 378 kts 11°
2026-04-30 12:54 46.52022 26.99390 20790 ft 376 kts 11°
2026-04-30 12:54 46.54517 27.00495 20301 ft 374 kts 11°
2026-04-30 12:54 46.57004 27.01597 19809 ft 373 kts 11°
2026-04-30 12:54 46.59490 27.02701 19324 ft 373 kts 11°
2026-04-30 12:55 46.61962 27.03801 18838 ft 372 kts 11°
2026-04-30 12:55 46.64439 27.04904 18317 ft 371 kts 12°
2026-04-30 12:55 46.66903 27.06004 17823 ft 369 kts 12°
2026-04-30 12:55 46.69339 27.07095 17346 ft 366 kts 12°
2026-04-30 12:56 46.71769 27.08185 16881 ft 363 kts 13°
2026-04-30 12:56 46.74143 27.09250 16426 ft 361 kts 13°
2026-04-30 12:56 46.76534 27.10322 15970 ft 359 kts 13°
2026-04-30 12:56 46.78911 27.11384 15512 ft 356 kts 13°
2026-04-30 12:57 46.81274 27.12442 15057 ft 354 kts 14°
2026-04-30 12:57 46.83624 27.13494 14604 ft 351 kts 14°
2026-04-30 12:57 46.85949 27.14537 14147 ft 349 kts 14°
2026-04-30 12:57 46.88231 27.15563 13750 ft 333 kts 14°
2026-04-30 12:58 46.90363 27.16531 13596 ft 312 kts 14°
2026-04-30 12:58 46.92431 27.17465 13122 ft 306 kts 14°
2026-04-30 12:58 46.94444 27.18372 12612 ft 298 kts 14°
2026-04-30 12:58 46.96403 27.19255 12096 ft 296 kts 14°
2026-04-30 12:59 46.98353 27.20133 11866 ft 290 kts 15°
2026-04-30 12:59 47.00264 27.20993 11608 ft 285 kts 14°
2026-04-30 12:59 47.02151 27.21843 11295 ft 282 kts 15°
2026-04-30 12:59 47.04026 27.22690 10936 ft 281 kts 15°
2026-04-30 13:00 47.05893 27.23537 10557 ft 281 kts 15°
2026-04-30 13:00 47.07756 27.24383 10180 ft 280 kts 16°
2026-04-30 13:00 47.09612 27.25227 9762 ft 279 kts 16°
2026-04-30 13:00 47.11442 27.26056 9322 ft 274 kts 16°
2026-04-30 13:01 47.13273 27.26884 8887 ft 275 kts 16°
2026-04-30 13:01 47.15100 27.27709 8460 ft 275 kts 16°
2026-04-30 13:01 47.16927 27.28536 8050 ft 273 kts 16°
2026-04-30 13:01 47.18691 27.29341 7682 ft 260 kts 17°
2026-04-30 13:02 47.20377 27.30112 7321 ft 247 kts 16°
2026-04-30 13:02 47.21998 27.30854 6964 ft 242 kts 17°
2026-04-30 13:02 47.23604 27.31590 6600 ft 242 kts 17°
2026-04-30 13:02 47.25210 27.32325 6238 ft 241 kts 17°
2026-04-30 13:03 47.26805 27.33053 5895 ft 237 kts 16°
2026-04-30 13:03 47.28343 27.33759 5557 ft 227 kts 16°
2026-04-30 13:03 47.29794 27.34501 5247 ft 219 kts 25°
2026-04-30 13:03 47.31059 27.35777 4926 ft 221 kts 42°
2026-04-30 13:04 47.31998 27.37551 4577 ft 220 kts 59°
2026-04-30 13:04 47.32532 27.39630 4264 ft 216 kts 72°
2026-04-30 13:04 47.32922 27.41762 3944 ft 214 kts 72°
2026-04-30 13:04 47.33297 27.43859 3634 ft 209 kts 77°
2026-04-30 13:05 47.33322 27.45971 3378 ft 206 kts 97°
2026-04-30 13:05 47.32863 27.47921 3148 ft 199 kts 116°
2026-04-30 13:05 47.32009 27.49490 3026 ft 197 kts 136°
2026-04-30 13:06 47.29718 27.51655 2927 ft 194 kts 147°
2026-04-30 13:06 47.28585 27.52671 2728 ft 187 kts 147°
2026-04-30 13:06 47.27498 27.53643 2496 ft 178 kts 147°
2026-04-30 13:06 47.26475 27.54556 2261 ft 163 kts 146°
2026-04-30 13:07 47.25529 27.55400 2054 ft 157 kts 146°
2026-04-30 13:07 47.24616 27.56215 1824 ft 151 kts 145°
2026-04-30 13:07 47.24012 27.56754 1686 ft 149 kts 145°
2026-04-30 13:07 47.22846 27.57795 1410 ft 147 kts 147°
2026-04-30 13:08 47.22258 27.58320 1236 ft 146 kts 147°
2026-04-30 13:08 47.21107 27.59352 983 ft 146 kts 147°
2026-04-30 13:08 47.20519 27.59878 853 ft 146 kts 149°
2026-04-30 13:08 47.19647 27.60650 636 ft 147 kts 148°
2026-04-30 13:09 47.18770 27.61432 421 ft 145 kts 148°
2026-04-30 13:09 47.18015 27.62095 379 ft 93 kts 148°
2026-04-30 13:09 47.17662 27.62414 364 ft 47 kts 148°
2026-04-30 13:09 47.17443 27.62604 358 ft 20 kts 150°
2026-04-30 13:10 47.17340 27.62564 358 ft 16 kts 244°
2026-04-30 13:10 47.17283 27.62432 358 ft 14 kts 237°
2026-04-30 13:10 47.17262 27.62312 357 ft 11 kts 295°
2026-04-30 13:10 47.17325 27.62249 357 ft 11 kts 330°
2026-04-30 13:11 47.17387 27.62193 360 ft 10 kts 327°
2026-04-30 13:11 47.17447 27.62139 362 ft 10 kts 329°
2026-04-30 13:11 47.17506 27.62088 368 ft 9 kts 330°
2026-04-30 13:11 47.17533 27.62046 367 ft 4 kts 264°
2026-04-30 13:12 47.17527 27.62018 370 ft 2 kts 252°
2026-04-30 13:12 47.17526 27.62003 369 ft 1 kts 265°
2026-04-30 13:12 47.17526 27.61980 369 ft 0 kts 272°
2026-04-30 13:13 47.17526 27.61976 369 ft 0 kts 272°